Terminal Aerodrome Forecast
Issued by NWS Binghamton, NY

Home | Current Version | Previous Version | Text Only | Print | Product List | Glossary On
Versions: 1 2 3 4 5 6 7 8 9 10 11 12 13 14 15 16 17 18 19
000
FTUS41 KBGM 210100 AAA
TAFAVP
TAF AMD
KAVP 210104Z 2101/2124 18010G18KT P6SM SKC
     FM210300 16006KT P6SM SKC
     FM211600 20009KT P6SM SCT250=

USA.gov is the U.S. government's official web portal to all federal, state and local government web resources and services.